This demonstration page uses our WeatherBlox Daily Observations layout. Learn more.

Left ArrowRight Arrow

39.29038, -76.61219

Hourly Observations for May 22, 2020

Temp ( °F °C ) Dew Point ( °F °C ) Humidity (%) Winds ( mph kmh ) Pressure ( in mb ) Visibility ( mi km ) Precip ( " mm )
12:54 am 00:54 undefined 61 16.1 54 12.2 78 78 undefined N/A 30.23 1024 N/A 0.00 0.00
1:54 am 01:54 undefined 61 16.1 54 12.2 78 78 undefined N/A 30.21 1023 N/A 0.00 0.00
2:54 am 02:54 undefined 60 15.6 54 12.2 80 80 undefined N/A 30.19 1022 N/A 0.00 0.00
3:54 am 03:54 undefined 60 15.6 54 12.2 80 80 undefined N/A 30.18 1022 N/A 0.00 0.00
4:54 am 04:54 undefined 60 15.6 55 12.8 84 84 undefined N/A 30.16 1021 N/A 0.00 0.00
5:54 am 05:54 undefined 59 15 57 13.9 93 93 undefined N/A 30.14 1021 N/A 0.02 0.51
6:54 am 06:54 undefined 60 15.6 58 14.4 93 93 undefined N/A 30.13 1020 N/A 0.05 1.27
7:54 am 07:54 undefined 61 16.1 59 15 93 93 undefined N/A 30.12 1020 N/A 0.01 0.25
8:54 am 08:54 undefined 61 16.1 59 15 93 93 undefined N/A 30.12 1020 N/A 0.01 0.25
9:54 am 09:54 undefined 62 16.7 60 15.6 93 93 undefined N/A 30.11 1020 N/A 0.07 1.78
10:54 am 10:54 undefined 63 17.2 61 16.1 93 93 undefined N/A 30.09 1019 N/A 0.03 0.76
11:54 am 11:54 undefined 65 18.3 63 17.2 93 93 undefined N/A 30.09 1019 N/A 0.10 2.54
12:54 pm 12:54 undefined 66 18.9 64 17.8 93 93 undefined N/A 30.08 1019 N/A 0.00 0.00
1:54 pm 13:54 undefined 68 20 66 18.9 93 93 undefined N/A 30.06 1018 N/A 0.03 0.76
2:54 pm 14:54 undefined 68 20 66 18.9 93 93 undefined N/A 30.05 1018 N/A 0.00 0.00
3:54 pm 15:54 undefined 70 21.1 67 19.4 90 90 undefined N/A 30.03 1017 N/A 0.00 0.00
4:54 pm 16:54 undefined 72 22.2 68 20 87 87 undefined N/A 30.01 1016 N/A 0.00 0.00
5:54 pm 17:54 undefined 71 21.7 66 18.9 84 84 undefined N/A 29.98 1015 N/A 0.00 0.00
6:54 pm 18:54 undefined 71 21.7 66 18.9 84 84 undefined N/A 29.98 1015 N/A 0.00 0.00
7:54 pm 19:54 undefined 70 21.1 66 18.9 87 87 undefined N/A 29.98 1015 N/A 0.00 0.00
8:54 pm 20:54 undefined 69 20.6 66 18.9 90 90 undefined N/A 29.98 1015 N/A 0.00 0.00
9:54 pm 21:54 undefined 69 20.6 67 19.4 93 93 undefined N/A 29.99 1016 N/A 0.00 0.00
10:54 pm 22:54 undefined 69 20.6 66 18.9 90 90 undefined N/A 30.00 1016 N/A 0.00 0.00
11:54 pm 23:54 undefined 68 20 66 18.9 93 93 undefined N/A 29.99 1016 N/A 0.00 0.00

Powered by AerisWeather